Weather History for Opa Locka, FL

Change the Weather History Date:

Tuesday, July 30, 2013

  Actual Average Record
Temperature  
Mean Temperature 86 °F -  
Max Temperature 91 °F 91 °F 95 °F (1990)
Min Temperature 80 °F 76 °F 68 °F (1969)
Cooling Degree Days 20    
Growing Degree Days 36 (Base 50)    
Moisture  
Dew Point 76 °F    
Average Humidity 78    
Maximum Humidity 89    
Minimum Humidity 59    
Precipitation  
Precipitation 0.09 in - - ()
Sea Level Pressure  
Sea Level Pressure 30.12 in    
Wind  
Wind Speed 5 mph (East)    
Max Wind Speed 15 mph    
Max Gust Speed 21 mph    
Visibility 10 miles    
Events Thunderstorm    
Averages and records for this station are not official NWS values.
T = Trace of Precipitation, MM = Missing Value Source: NWS Daily Summary

Daily Weather History Graph

Daily Weather History Graph

Search for Another Location

Airport:

Trip Planner

Search our weather history database for the weather conditions in past years. The results will help you decide how hot, cold, wet, or windy it might be!

Date:

Astronomy

Jul. 30, 2013 Rise Set
Actual Time 6:46 AM EDT 8:08 PM EDT
Civil Twilight 6:21 AM EDT 8:33 PM EDT
Nautical Twilight 5:51 AM EDT 9:02 PM EDT
Astronomical Twilight 5:21 AM EDT 9:33 PM EDT
Moon 12:58 AM EDT (7/30) 2:28 PM EDT (7/30)
Length of Visible Light 14h 11m
Length of Day
13h 22m
Last Quarter, 41% of the Moon is Illuminated
Jul 30
Last Quarter
Aug 6
New
Aug 14
First Quarter
Aug 20
Full
Aug 28
Last Quarter

Hourly Weather History & Observations

Time (EDT) Temp. Heat Index Dew Point Humidity Pressure Visibility Wind Dir Wind Speed Gust Speed Precip Events Conditions
12:53 AM 82.9 °F 91.8 °F 77.0 °F 82% 30.14 in 10.0 mi East 5.8 mph - N/A   Partly Cloudy
1:19 AM 84.2 °F 94.1 °F 77.0 °F 79% 30.14 in 10.0 mi ESE 4.6 mph - N/A Thunderstorm Thunderstorm
1:41 AM 82.4 °F 92.4 °F 78.8 °F 89% 30.13 in 10.0 mi SSW 3.5 mph - N/A   Mostly Cloudy
1:50 AM 82.4 °F 90.9 °F 77.0 °F 84% 30.13 in 10.0 mi SSW 5.8 mph - N/A Thunderstorm Thunderstorm
1:53 AM 82.0 °F 90.2 °F 77.0 °F 85% 30.13 in 10.0 mi SW 4.6 mph - N/A Thunderstorm Thunderstorm
2:19 AM 82.4 °F 90.9 °F 77.0 °F 84% 30.12 in 10.0 mi Calm Calm - N/A Thunderstorm Mostly Cloudy
2:32 AM 82.4 °F 92.4 °F 78.8 °F 89% 30.12 in 10.0 mi South 5.8 mph - 0.02 in   Mostly Cloudy
2:49 AM 82.4 °F 90.9 °F 77.0 °F 84% 30.11 in 10.0 mi Calm Calm - 0.04 in   Overcast
2:53 AM 82.0 °F 91.0 °F 78.1 °F 88% 30.12 in 10.0 mi SSE 3.5 mph - 0.04 in   Overcast
3:08 AM 82.4 °F 92.4 °F 78.8 °F 89% 30.11 in 10.0 mi Calm Calm - N/A   Scattered Clouds
3:53 AM 82.0 °F 91.0 °F 78.1 °F 88% 30.11 in 10.0 mi SE 3.5 mph - N/A   Partly Cloudy
4:53 AM 82.0 °F 90.2 °F 77.0 °F 85% 30.10 in 10.0 mi NE 3.5 mph - N/A   Scattered Clouds
5:01 AM 82.4 °F 90.9 °F 77.0 °F 84% 30.10 in 10.0 mi NE 3.5 mph - N/A Thunderstorm Mostly Cloudy
5:16 AM 82.4 °F 90.9 °F 77.0 °F 84% 30.10 in 10.0 mi NE 3.5 mph - N/A   Scattered Clouds
5:53 AM 82.0 °F 89.4 °F 75.9 °F 82% 30.10 in 10.0 mi ENE 3.5 mph - N/A   Clear
6:11 AM 80.6 °F 86.2 °F 75.2 °F 84% 30.10 in 10.0 mi NNE 3.5 mph - N/A Thunderstorm Clear
6:37 AM 80.6 °F 86.2 °F 75.2 °F 84% 30.10 in 10.0 mi ENE 4.6 mph - N/A   Partly Cloudy
6:53 AM 81.0 °F 86.2 °F 73.9 °F 79% 30.11 in 10.0 mi ENE 3.5 mph - N/A   Partly Cloudy
7:53 AM 82.0 °F 88.6 °F 75.0 °F 79% 30.13 in 10.0 mi Calm Calm - N/A   Clear
8:53 AM 84.9 °F 95.3 °F 77.0 °F 77% 30.15 in 10.0 mi NNE 4.6 mph - N/A   Clear
9:53 AM 82.9 °F 90.2 °F 75.0 °F 77% 30.17 in 10.0 mi ENE 15.0 mph 18.4 mph N/A   Mostly Cloudy
10:53 AM 80.1 °F 84.5 °F 73.9 °F 81% 30.17 in 10.0 mi ENE 8.1 mph - 0.05 in   Mostly Cloudy
11:53 AM 82.9 °F 91.8 °F 77.0 °F 82% 30.18 in 10.0 mi ENE 5.8 mph - N/A   Mostly Cloudy
12:53 PM 90.0 °F 104.5 °F 78.1 °F 68% 30.15 in 10.0 mi East 12.7 mph - N/A   Partly Cloudy
1:53 PM 91.0 °F 102.9 °F 75.9 °F 61% 30.14 in 10.0 mi East 15.0 mph 20.7 mph N/A   Partly Cloudy
2:53 PM 90.0 °F 101.3 °F 75.9 °F 63% 30.13 in 10.0 mi East 11.5 mph 20.7 mph N/A   Scattered Clouds
3:53 PM 91.0 °F 102.9 °F 75.9 °F 61% 30.11 in 10.0 mi East 13.8 mph 20.7 mph N/A   Partly Cloudy
4:53 PM 90.0 °F 99.0 °F 73.9 °F 59% 30.10 in 10.0 mi ESE 11.5 mph - N/A   Scattered Clouds
5:53 PM 89.1 °F 99.1 °F 75.0 °F 63% 30.09 in 10.0 mi East 11.5 mph - N/A   Partly Cloudy
6:53 PM 88.0 °F 96.5 °F 73.9 °F 63% 30.09 in 10.0 mi East 12.7 mph - N/A   Partly Cloudy
7:53 PM 84.9 °F 92.1 °F 73.9 °F 69% 30.11 in 10.0 mi East 9.2 mph - N/A   Partly Cloudy
8:53 PM 84.9 °F 93.3 °F 75.0 °F 72% 30.12 in 10.0 mi East 9.2 mph - N/A   Partly Cloudy
9:53 PM 84.0 °F 91.9 °F 75.0 °F 74% 30.13 in 10.0 mi East 4.6 mph - N/A   Partly Cloudy
10:53 PM 82.9 °F 90.2 °F 75.0 °F 77% 30.12 in 10.0 mi East 5.8 mph - N/A   Clear
11:53 PM 82.9 °F 90.2 °F 75.0 °F 77% 30.11 in 10.0 mi East 8.1 mph - N/A   Clear